This is the latest recevied weather packets stored in our database for station/object VK2HN. If no packets are shown the sender has not sent any weather packets the latest 1 day(s).
| Time | Temp. | Humidity | Pressure | Rain* | Wind** | Luminosity | Snow |
|---|---|---|---|---|---|---|---|
| 1778032240 | 21.11° C | 70% | 1019.8 hPa | 0 mm | - | - | - |
| 1778031940 | 20.56° C | 67% | 1019.8 hPa | 0 mm | - | - | - |
| 1778031640 | 20° C | 70% | 1020 hPa | 0 mm | - | - | - |
| 1778031340 | 20° C | 70% | 1020 hPa | 0 mm | - | - | - |
| 1778031040 | 19.44° C | 72% | 1020.1 hPa | 0 mm | - | - | - |
| 1778030740 | 18.89° C | 73% | 1020.2 hPa | 0 mm | - | - | - |
| 1778030440 | 18.33° C | 73% | 1020.3 hPa | 0 mm | - | - | - |
| 1778030140 | 18.33° C | 76% | 1020.5 hPa | 0 mm | - | - | - |
| 1778029840 | 17.78° C | 75% | 1020.5 hPa | 0 mm | - | - | - |
| 1778029540 | 17.22° C | 76% | 1020.7 hPa | 0 mm | - | - | - |
| 1778029240 | 17.22° C | 77% | 1020.8 hPa | 0 mm | - | - | - |
| 1778028940 | 16.67° C | 77% | 1020.9 hPa | 0 mm | - | - | - |
| 1778028640 | 16.67° C | 78% | 1021 hPa | 0 mm | - | - | - |
| 1778028340 | 16.67° C | 79% | 1021 hPa | 0 mm | - | - | - |
| 1778028040 | 16.11° C | 79% | 1021 hPa | 0 mm | - | - | - |
| 1778027740 | 16.11° C | 79% | 1021.1 hPa | 0 mm | - | - | - |
| 1778027440 | 16.11° C | 79% | 1021.2 hPa | 0 mm | - | - | - |
| 1778027140 | 16.11° C | 80% | 1021.3 hPa | 0 mm | - | - | - |
| 1778026840 | 15.56° C | 83% | 1021.2 hPa | 0 mm | - | - | - |
| 1778026540 | 15° C | 83% | 1021.4 hPa | 0 mm | - | - | - |
* Rain latest hour (hover to see other rain measurements)
** Current wind speed in m/s (hover to see current wind gust speed)